Skip Page Navigation
NASA JPL Caltech
NASA Logo - Jet Propulsion Laboratory + View the NASA Portal
+ Near-Earth Object (NEO) Program
Search JPL
JPL Home Earth Solar System Stars & Galaxies Technology
JPL Solar System Dynamics
BODIES ORBITS EPHEMERIDES TOOLS PHYSICAL DATA DISCOVERY FAQ SITE MAP
JPL Small-Body Database Browser
Search: [ help ]  
8046 Ajiki (1995 BU)
Classification: Main-belt Asteroid          SPK-ID: 2008046
Ephemeris | Orbit Diagram | Orbital Elements | Physical Parameters | Discovery Circumstances | Close-Approach Data ]

[ show orbit diagram ]
Orbital Elements at Epoch 2457000.5 (2014-Dec-09.0) TDB
Reference: JPL 13 (heliocentric ecliptic J2000)
 Element Value Uncertainty (1-sigma)   Units 
e .03080626043306886 6.7873e-08  
a 2.427995717624841 1.5379e-08 AU
q 2.353198249217314 1.6431e-07 AU
i 22.28415180152946 7.4856e-06 deg
node 130.7700081896989 1.5915e-05 deg
peri 343.7831536379986 0.00010714 deg
M 102.8013294626099 0.00010425 deg
tp 2456605.891412767492
(2013-Nov-09.39141277)
0.00040036 JED
period 1381.879905117098
3.78
1.3129e-05
3.595e-08
d
yr
n .2605146790737175 2.4752e-09 deg/d
Q 2.502793186032368 1.5853e-08 AU
  Orbit Determination Parameters
   # obs. used (total)      888  
   data-arc span      9064 days (24.82 yr)  
   first obs. used      1989-08-29  
   last obs. used      2014-06-23  
   planetary ephem.      DE431  
   SB-pert. ephem.      SB431-BIG16  
   condition code      0  
   fit RMS      .52065  
   data source      ORB  
   producer      Otto Matic  
   solution date      2014-Aug-13 14:11:55  

Additional Information
 Earth MOID = 1.37074 AU 
 T_jup = 3.407 
[ show covariance matrix ]

Ephemeris | Orbit Diagram | Orbital Elements | Physical Parameters | Discovery Circumstances | Close-Approach Data ]

Physical Parameter Table
Parameter Symbol Value Units Sigma Reference Notes
absolute magnitude H 13.4 mag n/a MPO250289  

8046 Ajiki           Discovered 1995 Jan. 25 by T. Kobayashi at Oizumi.
Osamu Ajiki (b. 1965), an amateur astronomer and computer programmer, contributed to the popularization of astronomy by developing a wide variety of astronomical software that is regularly used by astronomers around the world.
NOTE: some special characters may not display properly (any characters within {} are an attempt to place the proper accent above a character)
Reference: 20030106/MPCPages.arcLast Updated: 2003-10-02

[ show close-approach data ]
Ephemeris | Orbit Diagram | Orbital Elements | Physical Parameters | Discovery Circumstances | Close-Approach Data ]
ABOUT SSD CREDITS/AWARDS PRIVACY/COPYRIGHT GLOSSARY LINKS
FirstGov 2014-Oct-25 11:55 UT
(server date/time)  
NASA Home Page
Site Manager:   Donald K. Yeomans
Webmaster  Alan B. Chamberlin